218  
FPUS83 KFGF 130810  
OPUFGF  
PRAIRIE TO PINES WEATHER ROUNDUP  
NATIONAL WEATHER SERVICE EASTERN NORTH DAKOTA/GRAND FORKS ND  
300 AM CDT TUE APR 13 2021  
 
**SATELLITE DATA USED TO AUGMENT SKY COVER AT AUTOMATED STATIONS**  
***** WEATHER ACROSS EASTERN NORTH DAKOTA *****  
 
CITY SKY/WX TMP DP RH WIND PRES REMARKS  
GRAND FORKS LGT SNOW 25 21 85 NW18 29.92S FOG WCI 11  
GRND FORKS AFB LGT SNOW 25 25 99 NW14G22 29.92F BLWGSNOWWCI 13  
GRND FORKS NWS N/A 24 23 95 NW13 29.87F WCI 13  
BUXTON NOT AVBL  
DEVILS LAKE LGT SNOW 22 19 89 NW18 29.99S FOG WCI 7  
FARGO CLOUDY 26 22 84 NW16 29.95S WCI 14  
WAHPETON ARPT N/A N/A N/A N/A MISG N/A  

 
 
***** WEATHER ACROSS CENTRAL AND WESTERN NORTH DAKOTA *****  
 
CITY SKY/WX TMP DP RH WIND PRES REMARKS  
JAMESTOWN LGT SNOW 22 18 85 NW18 29.99S FOG WCI 7  
BISMARCK CLOUDY 25 14 63 NW15G24 30.11F WCI 13  
MINOT LGT SNOW 22 17 81 NW18 30.09F WCI 7  
MINOT AFB CLOUDY 22 19 87 N17G24 30.08F WCI 7  
GARRISON N/A 22 18 85 MISG 30.10S  
WILLISTON NOT AVBL  
DICKINSON LGT SNOW 23 19 85 NW22 30.12S FOG WCI 8  
HETTINGER CLOUDY N/A N/A N/A NW22G32 30.15F  

 
 
***** OTHER OBSERVATIONS NORTHEAST NORTH DAKOTA *****  
 
CITY SKY/WX TMP DP RH WIND PRES REMARKS  
WALHALLA MIX PCPN 23 23 100 NW21 29.96S WCI 8  
LANGDON CLOUDY 21 21 100 NW20G26 29.94F WCI 6  
CAVALIER LGT SNOW 23 21 93 NW22G29 29.93F WCI 8  
GRAFTON NOT AVBL  
CANDO LGT SNOW 21 21 100 NW18 30.02F WCI 6  
FORT TOTTEN N/A 22 18 85 N13 29.95S WCI 10  
ROLLA FLURRIES 19 19 100 N21G28 30.01S WCI 3  
RUGBY LGT SNOW 21 19 93 NW14 30.04S WCI 8  
***** THE ABOVE OBSERVATIONS ARE NON NWS ARE NOT QUALITY  
CONTROLLED AND MAY MIS-REPORT RAIN FOR SNOW...  

 
 
***** OTHER OBSERVATIONS SOUTHEAST NORTH DAKOTA *****  
 
CITY SKY/WX TMP DP RH WIND PRES REMARKS  
COOPERSTOWN CLOUDY 23 23 100 NW21G28 29.96S WCI 8  
VALLEY CITY CLOUDY 23 23 100 NW17G23 29.98S WCI 9  
OAKES CLOUDY 23 21 93 NW16 30.00S WCI 10  
GWINNER PTSUNNY 25 25 100 NW21 29.98S FOG WCI 10  
SHEYENNE NWR N/A 26 22 85 NW13 29.95 WCI 15  
BUFFALO NOT AVBL  
WYNDMERE NOT AVBL  
***** THE ABOVE OBSERVATIONS ARE NON NWS ARE NOT QUALITY  
CONTROLLED AND MAY MIS-REPORT RAIN FOR SNOW...  

 
 
***** WEATHER ACROSS NORTHERN MINNESOTA *****  
 
CITY SKY/WX TMP DP RH WIND PRES REMARKS  
FLAG ISLAND NOT AVBL  
WARROAD LGT SNOW 34 28 80 N7 29.79F  
ROSEAU LGT SNOW 34 N/A N/A N8 29.80S  
HALLOCK LGT SNOW 27 27 100 NW20G25 29.88S WCI 13  
THF RVR FALLS LGT SNOW 26 25 96 NW15 29.84F FOG WCI 14  
HALSTAD NOT AVBL  
FOSSTON LGT SNOW 23 21 93 W15G22 29.84F WCI 10  
BAUDETTE LGT SNOW 33 33 100 N8 29.75F FOG  
WASKISH LGT SNOW 34 32 93 NW8 29.74F  
CROOKSTON LGT SNOW 25 25 100 NW20 29.89S WCI 11  

 
***** WEATHER ACROSS CENTRAL AND WEST MINNESOTA *****  
 
CITY SKY/WX TMP DP RH WIND PRES REMARKS  
BEMIDJI LGT SNOW 26 25 94 W16 29.79S WCI 14  
PARK RAPIDS CLOUDY 27 22 81 W15G26 29.82F WCI 15  
WADENA N/A 27 25 93 W14G21 29.87S WCI 15  
DETROIT LAKES LGT SNOW 25 23 93 W15 29.89S FOG WCI 12  
MOORHEAD FAIR 28 21 74 W15 29.95S WCI 17  
FERGUS FALLS CLOUDY 27 21 80 NW20G26 29.90S WCI 13  
ELBOW LAKE CLOUDY 27 24 88 NW16G23 29.95S WCI 14  
MORRIS MN LGT SNOW 28 28 100 NW13 N/A WCI 18  
STAPLES CLOUDY 30 27 86 W14 29.87S WCI 20  
WHEATON NOT AVBL  

 
***** WEATHER ELSEWHERE ACROSS MINNESOTA *****  
 
CITY SKY/WX TMP DP RH WIND PRES REMARKS  
DULUTH LGT SNOW 33 30 88 W12 29.76S FOG WCI 24  
INTRNTL FALLS CLOUDY 35 33 92 NE7 29.72S  
ELY CLOUDY 36 36 100 SW3 29.71S FOG  
CLOQUET LGT SNOW 30 30 100 SW9 29.77S WCI 22  
BRAINERD LGT SNOW 30 27 88 W12 29.85S FOG WCI 20  
HIBBING LGT SNOW 32 29 88 W5 29.75R FOG  
ALEXANDRIA CLOUDY 27 23 85 W16G24 29.91S WCI 15  
SAINT CLOUD CLOUDY 31 24 75 W16G23 29.90S WCI 20  
MINNEAPOLIS MOCLDY 34 31 88 W13G29 29.94S WCI 25  

 
 
***** WEATHER ACROSS SOUTH DAKOTA *****  
 
CITY SKY/WX TMP DP RH WIND PRES REMARKS  
SIOUX FALLS CLOUDY 39 25 57 W12 30.05F  
BROOKINGS CLOUDY 31 21 66 W22G36 30.01S WCI 18  
WATERTOWN MOCLDY 29 23 78 W17G29 29.97S WCI 17  
HURON FAIR 30 23 75 NW13 30.08R WCI 20  
SISSETON N/A 31 23 72 NW18 29.96S WCI 19  
ABERDEEN CLOUDY 29 21 72 NW15 30.05S WCI 18  
MITCHELL CLOUDY 39 25 57 NW18 30.10S  
PIERRE CLOUDY 32 20 61 NW25G37 30.14R WCI 19  
MOBRIDGE CLOUDY 30 23 75 NW22G35 30.07S WCI 17  
RAPID CITY CLOUDY 31 19 61 NW21 30.20R WCI 18  

 
 
***** SOME WEATHER IN NEARBY STATES *****  
 
CITY SKY/WX TMP DP RH WIND PRES REMARKS  
GLASGOW MT CLOUDY 30 19 63 NW15G24 30.35F WCI 19  
GREAT FALLS MT FAIR 22 15 75 NE6 30.44R WCI 14  
CHEYENNE WY CLOUDY 26 14 60 N15G24 30.20F WCI 14  
SCOTTSBLUFF NE FAIR 22 12 65 NW6 30.27F WCI 14  
OMAHA NE FAIR 41 25 53 W8 30.16S  
DES MOINES IA CLOUDY 41 27 57 W13 30.12S  
DAVENPORT IA FAIR 41 32 70 W12 30.08R  
CHICAGO IL FAIR 46 34 62 SW7 29.99R  
EAU CLAIRE WI FAIR 37 29 72 W13 29.90R  
LA CROSSE WI CLOUDY 43 31 62 W20G28 29.96R  

 
 
***** SOME NATIONAL WEATHER *****  
 
CITY SKY/WX TMP DP RH WIND PRES REMARKS  
LA GUARDIA NY CLOUDY 46 41 82 N5 29.96S  
RALEIGH NC FAIR 55 43 63 CALM 29.95R  
ATLANTA GA FAIR 61 45 55 W5 29.99R  
NEW ORLEANS LA FAIR 66 61 84 E7 29.93F  
OKLAHOMA CITY MOCLDY 49 30 48 N14 30.07R  
ALBUQUERQUE NM MOCLDY 51 23 33 E31G46 29.97R  
SALT LAKE CITY FAIR 41 20 43 CALM 29.95S  
LOS ANGELES CA CLOUDY 57 51 80 W8 29.90S  
BOISE ID FAIR 43 14 31 SE8 30.02R  
SEATTLE WA FAIR 48 27 44 NE9 30.29R  

 
 
*** WEATHER ACROSS MANITOBA...SASKATCHEWAN AND ONTARIO ***  
***ONTARIO***  
 
CITY SKY/WX TMP DP RH WIND PRES REMARKS  
GERALDTON LGT RAIN 39 37 93 NE8 29.81S  
THUNDER BAY NOT AVBL  
SIOUX LOOKOUT NOT AVBL  
TORONTO CLOUDY 46 45 93 SE6 29.97R  
BIG TROUT LK NOT AVBL  
PICKLE LAKE CLOUDY 32 30 93 NE14G23 29.93 FOG WCI 22  
DRYDEN LGT SNOW 34 32 93 NE14G21 29.76 WCI 24  
KENORA LGT SNOW 32 32 100 N8 29.80S FOG WCI 25  

 
*** MANITOBA***  
 
CITY SKY/WX TMP DP RH WIND PRES REMARKS  
BRANDON LGT SNOW 21 18 86 NE14 30.08 WCI 8  
DAUPHIN NOT AVBL  
ISLAND LAKE NOT AVBL  
PILOT MOUND N/A 21 18 86 N13G20 N/A WCI 9  
THE PAS NOT AVBL  
THOMPSON MOCLDY 16 7 67 N13G20 30.57R WCI 2  
WINNIPEG LGT SNOW 25 23 93 N23G31 29.94F VSB 1 WCI 10  
CHURCHILL CLEAR 5 3 92 N12 30.76R WCI -11  
GILLAM FLURRIES 12 5 73 NE17G24 30.58S WCI -5  

 
***SASKATCHEWAN***  
 
CITY SKY/WX TMP DP RH WIND PRES REMARKS  
ESTEVAN LGT SNOW 23 19 86 N23G32 30.16 WCI 7  
KINDERSLEY NOT AVBL  
LLOYDMINSTER CLEAR 27 14 59 NE2 30.57R  
PRINCE ALBERT PTCLDY 28 14 54 N13 30.55S WCI 18  
REGINA SNOW 25 23 93 N23G32 30.29S VSB 1/2 WCI 10  
YORKTON LGT SNOW 25 21 86 N23G29 30.21 WCI 10  
N. BATTLEFORD NOT AVBL  
 
CLICK HERE TO GO TO PREVIOUS BULLETINS.

The Nexlab ND Page
The Nexlab MN Page Main Text Page